{"data":{"norad_id":69480,"epoch":"2026-09-18T00:28:38.571168Z","epoch_age_seconds":239704,"freshness":"STALE","line1":"1 69480U 26131C   26261.01989087  .00016557  00000+0  51403-3 0  9998","line2":"2 69480  97.2827 281.8631 0002414  84.9346 275.2172 15.33445355 16515","mean_motion":15.33445355,"eccentricity":0.0002414,"inclination_deg":97.2827,"raan_deg":281.8631,"arg_perigee_deg":84.9346,"mean_anomaly_deg":275.2172,"bstar":0.00051403,"rev_number":1651,"period_min":93.906182917095,"perigee_km":463.89005410896,"apogee_km":467.19418238724,"semimajor_km":6843.6791182481,"source":"CELESTRAK","updated_at":"2026-09-20T09:00:44.205403Z"}}